EN

Hourly Weather Alice Springs

Today, 24 January, Sunday

Time Temperature Precipitation Wind Pressure Humidity
00:00 +27°C° 0.1 mm 8 mps 706 mmHg 62%
01:00 +27°C° 0.1 mm 9 mps 705 mmHg 63%
02:00 +27°C° 0.1 mm 9 mps 704 mmHg 65%
03:00 +27°C° 0.1 mm 9 mps 704 mmHg 67%
04:00 +27°C° 0 mm 9 mps 704 mmHg 68%
05:00 +27°C° 0 mm 10 mps 704 mmHg 69%
06:00 +27°C° 0 mm 10 mps 704 mmHg 71%
07:00 +29°C° 0 mm 2 mps 705 mmHg 54%
08:00 +30°C° 0 mm 2 mps 705 mmHg 51%
09:00 +31°C° 0 mm 2 mps 706 mmHg 48%
10:00 +34°C° 0 mm 3 mps 705 mmHg 42%
11:00 +35°C° 0 mm 4 mps 705 mmHg 37%
12:00 +36°C° 0 mm 5 mps 705 mmHg 32%
13:00 +36°C° 0 mm 4 mps 704 mmHg 32%
14:00 +37°C° 0 mm 3 mps 704 mmHg 31%
15:00 +37°C° 0 mm 3 mps 703 mmHg 31%
16:00 +36°C° 0 mm 3 mps 703 mmHg 33%
17:00 +35°C° 0 mm 3 mps 703 mmHg 36%
18:00 +34°C° 0 mm 3 mps 703 mmHg 39%
19:00 +32°C° 0 mm 2 mps 703 mmHg 41%
20:00 +32°C° 0 mm 2 mps 703 mmHg 43%
21:00 +31°C° 0 mm 2 mps 704 mmHg 45%
22:00 +30°C° 0.2 mm 2 mps 704 mmHg 48%
23:00 +30°C° 0.2 mm 2 mps 703 mmHg 51%

Tomorrow, 25 January, Monday

Time Temperature Precipitation Wind Pressure Humidity
00:00 +29°C° 0.2 mm 3 mps 703 mmHg 54%
01:00 +29°C° 0.7 mm 3 mps 703 mmHg 57%
02:00 +28°C° 0.7 mm 3 mps 703 mmHg 60%
03:00 +27°C° 0.7 mm 4 mps 702 mmHg 63%
04:00 +27°C° 0.4 mm 4 mps 703 mmHg 64%
05:00 +27°C° 0.4 mm 4 mps 703 mmHg 64%
06:00 +27°C° 0.4 mm 4 mps 703 mmHg 65%
07:00 +29°C° 0 mm 4 mps 703 mmHg 58%
08:00 +30°C° 0 mm 4 mps 704 mmHg 50%
09:00 +33°C° 0 mm 5 mps 704 mmHg 43%
10:00 +34°C° 0 mm 6 mps 704 mmHg 40%
11:00 +35°C° 0 mm 7 mps 703 mmHg 36%
12:00 +37°C° 0 mm 8 mps 703 mmHg 33%
13:00 +38°C° 0 mm 8 mps 702 mmHg 32%
14:00 +39°C° 0 mm 8 mps 702 mmHg 30%
15:00 +39°C° 0 mm 8 mps 701 mmHg 28%
16:00 +39°C° 0 mm 8 mps 701 mmHg 28%
17:00 +39°C° 0 mm 8 mps 701 mmHg 28%
18:00 +38°C° 0 mm 8 mps 701 mmHg 28%
19:00 +36°C° 0 mm 7 mps 701 mmHg 31%
20:00 +35°C° 0 mm 7 mps 701 mmHg 34%
21:00 +34°C° 0 mm 6 mps 702 mmHg 37%
22:00 +33°C° 0.4 mm 5 mps 701 mmHg 40%
23:00 +33°C° 0.4 mm 4 mps 701 mmHg 44%

Day after tomorrow, 26 January, Tuesday

Time Temperature Precipitation Wind Pressure Humidity
00:00 +31°C° 0.4 mm 3 mps 701 mmHg 47%
01:00 +30°C° 0.3 mm 3 mps 701 mmHg 50%
02:00 +30°C° 0.3 mm 3 mps 701 mmHg 52%
03:00 +29°C° 0.3 mm 3 mps 701 mmHg 55%
04:00 +29°C° 0 mm 3 mps 701 mmHg 58%
05:00 +28°C° 0 mm 3 mps 701 mmHg 62%
06:00 +28°C° 0 mm 4 mps 701 mmHg 66%
07:00 +29°C° 0 mm 5 mps 702 mmHg 60%
08:00 +30°C° 0 mm 6 mps 702 mmHg 55%
09:00 +33°C° 0 mm 7 mps 703 mmHg 50%
10:00 +34°C° 0 mm 7 mps 703 mmHg 46%
11:00 +35°C° 0 mm 6 mps 702 mmHg 41%
12:00 +36°C° 0 mm 6 mps 702 mmHg 37%
13:00 +38°C° 0 mm 7 mps 702 mmHg 33%
14:00 +39°C° 0 mm 7 mps 701 mmHg 30%
15:00 +40°C° 0 mm 8 mps 701 mmHg 26%
16:00 +39°C° 0 mm 8 mps 701 mmHg 27%
17:00 +38°C° 0 mm 9 mps 701 mmHg 29%
18:00 +38°C° 0 mm 9 mps 701 mmHg 30%
19:00 +35°C° 0 mm 9 mps 701 mmHg 36%
20:00 +34°C° 0 mm 8 mps 702 mmHg 42%
21:00 +32°C° 0 mm 8 mps 702 mmHg 48%
22:00 +30°C° 0 mm 7 mps 702 mmHg 52%
23:00 +29°C° 0 mm 6 mps 702 mmHg 55%

27 January, Wednesday

Time Temperature Precipitation Wind Pressure Humidity
00:00 +28°C° 0 mm 6 mps 702 mmHg 59%
01:00 +28°C° 0 mm 6 mps 702 mmHg 61%
02:00 +27°C° 0 mm 5 mps 702 mmHg 63%
03:00 +27°C° 0 mm 5 mps 702 mmHg 65%
04:00 +27°C° 0 mm 5 mps 702 mmHg 67%
05:00 +26°C° 0 mm 4 mps 702 mmHg 69%
06:00 +26°C° 0 mm 4 mps 703 mmHg 71%
07:00 +27°C° 0 mm 4 mps 703 mmHg 63%
08:00 +29°C° 0 mm 5 mps 704 mmHg 55%
09:00 +32°C° 0 mm 5 mps 704 mmHg 47%
10:00 +33°C° 0 mm 6 mps 704 mmHg 40%
11:00 +35°C° 0 mm 6 mps 704 mmHg 33%
12:00 +38°C° 0 mm 6 mps 703 mmHg 25%
13:00 +39°C° 0 mm 6 mps 703 mmHg 24%
14:00 +39°C° 0 mm 6 mps 702 mmHg 23%
15:00 +40°C° 0 mm 7 mps 702 mmHg 21%
16:00 +40°C° 0 mm 7 mps 702 mmHg 22%
17:00 +39°C° 0 mm 7 mps 702 mmHg 22%
18:00 +38°C° 0 mm 8 mps 702 mmHg 22%
19:00 +36°C° 0 mm 7 mps 702 mmHg 23%
20:00 +35°C° 0 mm 7 mps 703 mmHg 25%
21:00 +34°C° 0 mm 6 mps 703 mmHg 26%
22:00 +33°C° 0 mm 6 mps 703 mmHg 28%
23:00 +32°C° 0 mm 6 mps 703 mmHg 30%

28 January, Thursday

Time Temperature Precipitation Wind Pressure Humidity
00:00 +30°C° 0 mm 5 mps 704 mmHg 32%
01:00 +29°C° 0 mm 5 mps 703 mmHg 32%
02:00 +29°C° 0 mm 5 mps 703 mmHg 33%
03:00 +28°C° 0 mm 4 mps 703 mmHg 34%
04:00 +27°C° 0 mm 4 mps 703 mmHg 35%
05:00 +27°C° 0 mm 4 mps 703 mmHg 36%
06:00 +26°C° 0 mm 4 mps 704 mmHg 37%
07:00 +28°C° 0 mm 5 mps 704 mmHg 31%
08:00 +29°C° 0 mm 7 mps 705 mmHg 26%
09:00 +32°C° 0 mm 8 mps 706 mmHg 20%
10:00 +33°C° 0 mm 8 mps 705 mmHg 18%
11:00 +35°C° 0 mm 8 mps 705 mmHg 16%
12:00 +37°C° 0 mm 8 mps 705 mmHg 14%
13:00 +38°C° 0 mm 8 mps 705 mmHg 14%
14:00 +38°C° 0 mm 8 mps 704 mmHg 14%
15:00 +39°C° 0 mm 8 mps 704 mmHg 14%
16:00 +38°C° 0 mm 8 mps 704 mmHg 15%
17:00 +37°C° 0 mm 9 mps 704 mmHg 16%
18:00 +35°C° 0 mm 9 mps 704 mmHg 17%
19:00 +34°C° 0 mm 9 mps 704 mmHg 17%
20:00 +32°C° 0 mm 8 mps 705 mmHg 18%
21:00 +31°C° 0 mm 8 mps 705 mmHg 18%
22:00 +29°C° 0 mm 8 mps 705 mmHg 22%
23:00 +29°C° 0 mm 8 mps 705 mmHg 26%

29 January, Friday

Time Temperature Precipitation Wind Pressure Humidity
00:00 +28°C° 0 mm 8 mps 705 mmHg 29%
01:00 +27°C° 0 mm 8 mps 705 mmHg 31%
02:00 +27°C° 0 mm 7 mps 705 mmHg 32%
03:00 +26°C° 0 mm 7 mps 704 mmHg 34%
Show more